Probability
97 100 100 100 100 100 100 100 100 100 100 100 100 100 100 100 100 100 100 100 97 94 97 97 100 100 97 94 97 94 97 97 97 97 97 100 97 100 97 100 100 94 100
100 100 100 100 100 100 100 100 100 100 100 100 100 100 100 100 100 100 100 100 90 84 87 90 87 97 97 87 90 94 90 90 87 90 90 100 100 100 100 100 100 100 100
97 100 100 100 100 100 100 100 100 100 100 100 100 100 100 100 100 100 100 94 90 87 81 87 77 87 94 84 81 90 87 97 100 100 100 100 100 100 100 100 100 100 100
94 100 100 100 100 100 100 100 100 100 100 100 100 100 100 100 100 100 97 97 100 90 94 84 87 84 97 84 84 90 97 97 100 97 100 94 100 100 100 100 100 100 100
100 100 100 100 100 100 100 100 100 100 100 100 100 100 100 100 100 100 100 100 100 100 100 94 84 87 94 97 97 94 97 100 100 100 97 100 100 100 100 100 100 100 100
100 100 100 100 100 100 100 100 100 100 100 100 100 100 100 100 100 100 100 100 100 100 94 94 97 90 87 90 97 97 94 100 100 100 100 100 100 100 100 100 100 100 100
100 100 100 100 100 100 100 100 100 100 100 100 100 100 100 100 100 100 100 100 100 100 100 94 97 97 94 94 94 100 97 97 100 100 100 100 100 100 100 100 100 100 100
100 100 100 100 100 100 100 100 100 100 100 100 100 100 100 100 100 100 100 100 100 100 100 100 100 100 97 97 94 97 97 97 87 87 97 100 100 100 100 100 100 97 100
100 100 100 100 100 100 100 100 100 100 100 100 100 100 97 97 97 100 100 100 100 100 100 100 97 100 100 100 94 94 94 97 97 87 94 97 100 100 100 100 100 100 100
100 100 100 100 100 100 100 100 100 100 100 100 97 94 94 90 94 97 97 97 100 100 100 100 100 97 100 97 97 94 94 94 84 58 74 97 100 100 100 100 100 100 100
97 97 100 100 97 100 100 100 100 100 100 94 94 90 90 90 87 87 87 90 84 90 94 97 97 100 97 97 97 94 94 87 55 35 65 94 100 100 100 100 100 100 100
97 97 100 97 94 94 94 97 97 90 94 94 90 81 81 87 77 77 74 65 68 71 81 84 90 94 97 94 94 94 90 84 45 35 77 87 94 100 100 100 100 100 100
97 100 94 97 94 94 94 94 90 87 77 74 81 71 71 71 77 71 68 65 61 68 68 68 74 74 81 90 90 87 84 77 55 42 74 87 90 94 100 100 100 100 100
97 100 97 97 94 90 84 84 81 77 65 58 52 45 45 52 65 71 74 65 55 55 58 55 55 61 61 61 77 84 71 71 71 61 74 87 84 87 97 100 100 100 100
100 94 97 94 94 87 87 81 65 65 48 48 52 35 42 42 45 45 61 71 48 45 52 39 39 35 45 52 52 48 55 68 74 71 71 81 84 90 94 100 97 97 97
97 97 94 84 84 81 81 77 68 42 55 39 32 29 29 29 35 32 32 58 45 45 42 39 32 39 32 35 35 42 52 55 61 77 68 84 84 90 97 97 100 100 97
94 94 90 84 74 68 65 61 52 29 19 19 19 23 23 19 19 26 29 35 32 29 26 32 13 19 13 13 26 35 42 55 65 68 68 77 84 87 94 100 100 100 100
94 97 90 58 65 65 65 55 32 23 19 23 16 13 3 10 10 16 13 16 26 19 26 29 19 13 10 10 16 26 32 48 52 58 58 61 68 68 90 94 100 100 100
97 97 84 68 52 52 45 45 35 39 35 29 13 13 3 0 0 3 10 13 13 13 13 3 6 3 3 6 6 6 23 29 45 39 42 65 74 74 74 77 100 94 94
90 87 77 68 61 48 58 55 45 32 29 26 16 13 0 0 0 0 0 3 10 6 10 10 6 6 6 6 6 3 10 16 26 29 52 48 74 74 74 74 74 81 90
84 87 77 74 81 68 65 55 58 58 48 39 23 3 0 0 0 0 0 0 0 0 0 3 3 3 6 10 6 3 0 0 6 19 35 45 45 58 65 65 74 61 65
74 81 84 81 81 74 77 68 68 45 39 32 23 13 3 3 0 0 0 0 0 0 0 0 3 0 0 0 3 0 0 3 13 0 23 45 32 45 39 39 61 58 65
74 77 65 87 81 77 68 68 58 61 48 39 23 13 3 0 0 0 0 0 3 0 0 0 0 0 0 0 0 0 0 0 0 3 10 16 35 39 39 32 26 45 39
65 68 90 90 87 77 61 65 58 55 39 29 16 13 6 3 0 0 0 0 0 0 0 0 0 0 0 0 0 0 0 0 0 0 0 3 13 16 19 10 13 26 35
52 65 84 87 87 81 68 58 52 48 23 19 16 10 6 3 0 0 0 0 0 0 0 0 0 0 0 0 0 0 0 0 0 0 0 0 0 3 13 16 16 13 16
48 61 71 77 77 71 65 45 39 26 23 19 13 13 6 3 0 0 0 0 0 0 0 0 0 0 0 0 0 0 0 0 0 0 0 0 0 0 3 10 10 13 13
Height
5908 5908 5909 5909 5909 5910 5910 5910 5909 5909 5909 5908 5908 5907 5907 5906 5906 5906 5905 5905 5904 5903 5903 5902 5902 5901 5900 5899 5899 5898 5898 5897 5897 5897 5897 5897 5897 5897 5897 5898 5898 5899 5900
5908 5908 5908 5909 5909 5909 5909 5909 5909 5909 5909 5908 5908 5907 5907 5906 5906 5906 5905 5905 5904 5903 5903 5902 5902 5901 5901 5900 5899 5899 5898 5898 5898 5897 5897 5897 5898 5898 5898 5898 5899 5900 5901
5907 5907 5907 5908 5908 5909 5909 5909 5909 5909 5908 5908 5908 5907 5907 5906 5906 5905 5905 5904 5904 5903 5903 5902 5902 5901 5901 5900 5900 5899 5899 5898 5898 5898 5898 5898 5898 5899 5899 5899 5900 5901 5902
5907 5907 5907 5907 5907 5907 5908 5908 5908 5908 5908 5907 5907 5906 5906 5906 5905 5904 5904 5903 5903 5902 5902 5901 5901 5900 5900 5900 5899 5899 5899 5899 5898 5898 5898 5898 5899 5899 5900 5900 5901 5901 5902
5906 5906 5906 5906 5906 5906 5907 5907 5907 5907 5906 5906 5906 5905 5905 5904 5904 5903 5903 5902 5902 5901 5901 5900 5900 5899 5899 5899 5898 5898 5898 5898 5898 5898 5898 5898 5899 5900 5900 5901 5901 5902 5903
5905 5905 5905 5905 5905 5905 5905 5905 5905 5905 5905 5904 5904 5904 5903 5903 5902 5902 5901 5901 5900 5899 5899 5899 5898 5898 5898 5897 5897 5897 5897 5897 5898 5898 5898 5898 5899 5899 5900 5901 5901 5902 5903
5904 5904 5904 5904 5904 5904 5904 5904 5903 5903 5903 5902 5902 5901 5901 5900 5900 5899 5899 5898 5898 5898 5897 5897 5897 5896 5896 5896 5896 5895 5896 5896 5896 5897 5897 5898 5898 5899 5899 5900 5901 5902 5903
5903 5902 5902 5902 5902 5902 5902 5902 5901 5901 5900 5900 5899 5899 5898 5898 5897 5897 5896 5896 5896 5895 5895 5895 5894 5894 5894 5894 5894 5894 5894 5894 5895 5895 5896 5896 5897 5898 5899 5899 5901 5902 5903
5900 5900 5900 5900 5900 5900 5899 5899 5899 5898 5898 5897 5896 5896 5895 5894 5894 5893 5893 5893 5892 5892 5892 5892 5892 5892 5892 5891 5891 5891 5891 5892 5892 5893 5894 5894 5895 5896 5897 5898 5900 5901 5902
5898 5898 5898 5898 5897 5897 5896 5896 5896 5895 5894 5894 5893 5892 5891 5890 5889 5889 5889 5889 5889 5888 5889 5889 5889 5889 5889 5889 5888 5889 5889 5889 5889 5890 5891 5891 5893 5894 5895 5897 5898 5900 5901
5895 5895 5895 5895 5894 5893 5893 5892 5892 5891 5890 5889 5888 5887 5886 5885 5885 5885 5884 5884 5884 5884 5884 5884 5885 5885 5885 5885 5885 5885 5886 5886 5886 5887 5888 5888 5890 5891 5893 5894 5896 5898 5900
5892 5891 5891 5891 5890 5890 5889 5889 5888 5887 5886 5885 5884 5882 5881 5880 5880 5880 5879 5878 5879 5879 5879 5880 5880 5881 5881 5881 5881 5882 5882 5882 5883 5883 5884 5884 5886 5888 5890 5891 5893 5896 5898
5889 5888 5888 5887 5886 5886 5885 5884 5883 5882 5881 5880 5879 5878 5876 5876 5875 5874 5874 5874 5874 5874 5874 5875 5875 5876 5876 5877 5877 5877 5877 5878 5878 5879 5880 5881 5883 5884 5886 5888 5890 5892 5895
5886 5885 5885 5884 5883 5882 5881 5880 5879 5878 5877 5876 5874 5874 5873 5872 5871 5871 5870 5870 5870 5869 5869 5869 5870 5870 5871 5871 5872 5872 5872 5873 5874 5874 5876 5877 5878 5880 5882 5884 5886 5889 5891
5883 5882 5882 5881 5880 5879 5878 5877 5876 5875 5874 5872 5871 5870 5869 5868 5867 5867 5866 5865 5865 5865 5865 5864 5864 5865 5865 5866 5867 5868 5868 5869 5869 5870 5870 5872 5874 5876 5878 5880 5882 5885 5887
5880 5879 5878 5878 5877 5876 5875 5874 5873 5872 5871 5870 5869 5867 5866 5865 5864 5863 5862 5861 5860 5860 5859 5859 5859 5859 5859 5860 5861 5862 5863 5864 5865 5865 5866 5868 5869 5871 5873 5875 5877 5880 5883
5877 5876 5876 5875 5875 5874 5873 5871 5870 5869 5868 5866 5865 5864 5862 5861 5860 5859 5858 5857 5856 5855 5855 5854 5854 5855 5854 5855 5856 5857 5858 5859 5860 5860 5862 5864 5865 5866 5867 5869 5872 5875 5877
5874 5873 5873 5873 5873 5872 5870 5869 5868 5866 5865 5863 5862 5861 5859 5857 5856 5855 5854 5853 5852 5851 5850 5850 5849 5850 5849 5849 5850 5851 5852 5853 5854 5855 5856 5858 5859 5861 5862 5864 5866 5869 5872
5872 5871 5871 5871 5870 5870 5868 5867 5866 5864 5862 5861 5859 5857 5855 5854 5852 5851 5850 5848 5847 5846 5846 5845 5845 5844 5844 5844 5844 5845 5846 5847 5848 5849 5851 5851 5853 5855 5857 5859 5861 5863 5866
5869 5870 5869 5869 5868 5867 5866 5865 5863 5862 5860 5858 5856 5854 5852 5850 5848 5847 5845 5844 5843 5842 5841 5840 5839 5839 5839 5839 5839 5839 5840 5841 5841 5843 5844 5845 5847 5849 5851 5853 5855 5857 5860
5867 5868 5868 5867 5866 5865 5864 5863 5861 5859 5857 5855 5853 5851 5849 5847 5845 5843 5842 5840 5839 5838 5837 5836 5835 5834 5834 5834 5834 5834 5834 5834 5835 5836 5837 5839 5840 5842 5844 5846 5848 5851 5853
5865 5866 5866 5865 5864 5863 5862 5860 5859 5857 5855 5852 5850 5848 5846 5844 5842 5840 5838 5837 5835 5834 5833 5832 5831 5830 5829 5829 5829 5828 5828 5829 5829 5830 5831 5831 5833 5834 5836 5838 5841 5843 5846
5864 5864 5864 5864 5863 5861 5860 5858 5856 5854 5852 5850 5848 5846 5843 5841 5839 5837 5835 5833 5832 5830 5829 5827 5826 5825 5825 5824 5823 5823 5823 5822 5823 5823 5824 5824 5825 5827 5828 5830 5833 5835 5838
5863 5863 5862 5862 5861 5859 5858 5856 5854 5852 5850 5847 5845 5843 5841 5838 5836 5834 5832 5830 5828 5826 5825 5823 5822 5820 5819 5818 5818 5817 5816 5816 5816 5816 5817 5817 5818 5819 5821 5823 5825 5827 5830
5861 5861 5861 5860 5858 5857 5855 5853 5851 5849 5847 5845 5842 5840 5838 5835 5833 5831 5828 5826 5824 5822 5820 5818 5817 5815 5814 5812 5811 5811 5810 5809 5808 5809 5809 5809 5810 5811 5813 5815 5817 5819 5821
5859 5859 5859 5857 5856 5854 5853 5851 5849 5847 5844 5842 5839 5837 5834 5832 5830 5827 5825 5822 5820 5818 5815 5813 5811 5809 5807 5806 5804 5803 5802 5802 5801 5800 5801 5801 5801 5803 5804 5806 5808 5810 5812
Wind_Speed
2 2 1 1 1 1 2 4 4 5 5 5 5 4 4 4 4 4 4 3 3 4 4 4 4 5 5 4 4 5 5 5 4 4 4 3 3 4 4 5 6 7 7
4 3 2 2 2 3 4 4 5 5 5 6 6 6 6 6 6 6 5 5 5 5 4 5 5 5 5 5 4 4 4 4 4 3 2 2 2 2 3 4 5 6 7
5 4 4 4 4 5 5 6 6 6 6 7 7 7 8 8 8 8 8 7 7 7 6 6 6 6 6 5 5 4 4 4 3 2 1 0 0 1 2 4 4 6 6
5 4 5 5 6 6 7 7 8 8 8 9 9 9 9 10 10 10 10 10 10 9 9 8 7 7 7 7 6 5 5 4 4 3 3 1 1 1 2 3 4 5 6
5 5 5 6 7 8 8 9 9 10 10 10 10 11 11 12 12 12 12 12 12 11 10 10 9 9 8 8 8 7 7 6 5 5 4 2 2 3 3 3 3 4 5
5 6 7 8 9 9 10 11 11 12 12 12 13 13 13 13 14 14 14 14 13 13 12 11 11 10 10 10 10 9 9 8 7 6 5 4 4 4 4 4 4 4 5
6 7 8 9 10 11 12 12 13 13 14 14 14 14 15 15 16 16 16 16 15 15 14 14 13 12 11 11 11 10 10 10 9 8 7 7 6 6 5 5 5 5 5
7 9 10 11 12 13 13 14 15 15 16 16 16 16 17 17 18 18 18 18 17 17 16 16 15 14 13 13 12 12 12 12 12 11 10 9 9 8 7 7 6 6 7
9 11 12 12 14 15 16 16 17 18 18 18 19 19 20 20 20 20 20 20 19 19 19 18 17 16 16 15 14 13 13 13 13 13 12 12 11 11 10 9 9 8 8
13 13 13 14 15 16 17 18 19 20 20 21 22 22 22 22 22 22 21 22 21 21 21 20 20 19 18 17 16 15 15 15 15 14 14 14 14 13 13 12 11 11 10
15 14 14 15 17 17 18 19 21 21 22 22 22 23 24 24 23 23 24 24 23 23 22 22 21 21 20 19 18 18 17 17 16 16 15 15 16 16 16 15 14 14 13
16 16 16 16 17 18 19 20 21 22 22 22 22 23 23 22 22 23 23 23 24 24 24 24 24 23 22 21 20 19 18 18 18 17 16 16 16 17 19 19 18 17 16
16 16 17 17 18 19 19 20 21 21 21 22 22 22 22 21 20 20 20 21 22 22 23 22 23 23 22 22 21 20 20 19 19 17 16 17 18 18 19 21 21 20 19
16 16 17 17 17 18 19 20 20 20 20 19 19 20 20 19 18 19 21 20 20 20 20 22 22 22 22 23 23 22 20 20 20 18 18 18 18 19 19 22 24 24 22
16 17 16 16 16 17 18 17 18 17 17 17 17 18 18 18 18 20 20 20 20 20 21 22 23 23 22 23 22 22 22 21 21 21 19 19 19 19 20 21 24 27 26
16 15 15 14 14 15 16 16 16 16 16 16 17 17 18 18 19 20 20 20 20 20 21 22 22 23 23 23 22 21 21 22 22 23 22 21 21 21 21 22 24 27 28
15 14 13 13 13 14 15 15 16 17 17 17 17 17 18 18 18 19 20 20 20 21 21 21 22 21 23 23 23 23 23 23 23 23 23 23 23 23 22 23 25 27 29
13 13 12 12 13 13 14 14 15 16 16 17 17 17 18 19 19 19 19 20 21 21 21 21 22 22 22 22 23 23 23 23 23 24 25 25 25 25 24 23 25 27 29
12 12 11 11 11 12 13 14 14 16 16 17 17 17 18 18 19 19 19 19 20 20 21 21 21 22 22 22 22 23 23 24 24 25 26 26 27 27 27 26 26 27 29
11 11 11 11 11 12 13 14 14 15 16 17 17 17 18 18 18 19 18 18 18 18 19 20 21 21 22 22 23 23 24 25 26 26 26 27 28 28 28 29 28 28 29
10 10 10 10 11 11 12 13 14 15 15 16 16 16 17 18 18 18 18 18 18 18 17 18 18 20 20 21 22 23 24 25 26 26 27 27 28 29 30 30 30 30 30
8 9 9 9 9 10 11 12 13 14 15 15 16 17 17 18 18 18 18 18 18 18 18 18 18 18 19 20 21 21 23 24 24 25 27 28 28 29 30 31 32 32 32
6 6 7 8 9 10 11 12 13 15 16 17 17 18 18 18 19 19 19 19 19 19 19 19 19 20 20 20 21 22 23 24 24 25 26 27 28 29 30 31 32 33 34
4 5 6 8 9 11 12 14 15 16 17 18 19 19 19 19 19 20 20 20 20 20 21 21 21 21 21 21 22 22 24 25 26 27 27 28 29 29 30 31 32 33 34
3 5 7 9 10 12 14 16 17 18 19 19 20 20 20 20 20 21 21 21 22 22 22 22 23 23 23 23 24 24 25 26 27 28 29 29 30 31 31 32 33 33 35
6 7 9 10 12 13 15 17 18 19 20 21 21 22 22 22 21 21 22 22 23 24 24 24 25 26 26 26 27 27 27 28 29 30 31 32 32 33 34 34 34 35 36
Wind_Direction
321 335 358 15 18 348 329 317 307 299 293 294 294 297 303 307 312 314 316 323 334 343 351 359 1 9 16 19 20 21 22 23 25 35 44 53 71 93 103 116 123 122 126
305 316 327 323 326 325 321 316 311 303 296 293 292 292 295 299 302 301 300 303 309 315 323 333 337 343 350 354 358 359 4 8 9 15 28 43 60 93 104 115 121 129 132
290 303 318 321 320 322 319 315 310 303 298 297 294 293 294 295 295 293 291 292 295 298 303 307 313 318 323 327 330 333 336 344 346 340 333 5 54 120 125 121 124 129 139
295 307 319 325 325 322 318 316 311 307 303 299 296 294 294 294 292 289 287 287 287 288 292 295 297 300 304 306 306 308 311 314 314 309 291 258 225 192 168 149 132 132 147
295 305 316 320 322 320 317 315 311 308 303 299 296 294 294 292 291 289 286 285 283 283 285 287 289 290 292 295 293 290 289 293 289 290 291 275 247 222 202 182 160 153 157
303 311 317 317 317 317 315 312 308 304 301 298 295 295 294 292 290 288 286 283 280 278 278 280 283 284 286 288 285 281 277 278 279 277 280 269 254 238 221 208 190 178 172
318 312 316 313 312 310 307 306 303 302 301 298 295 294 293 291 290 287 285 281 278 276 275 276 276 277 280 283 284 279 275 272 273 268 269 266 251 243 232 222 212 199 187
329 317 314 311 308 304 301 298 297 297 297 295 295 293 290 288 286 285 282 278 275 274 274 273 272 272 274 277 279 277 276 272 269 265 263 261 252 245 239 230 222 213 203
321 315 312 307 302 299 297 295 294 294 292 291 291 290 288 286 283 281 280 276 272 269 269 268 267 268 270 273 274 275 274 274 268 265 261 256 253 246 238 233 227 222 216
314 311 308 303 297 293 291 292 291 291 289 289 288 286 284 282 280 279 277 273 267 264 264 265 264 264 266 267 268 270 271 271 271 266 261 254 251 245 237 235 231 226 222
309 307 302 299 293 290 289 289 288 287 287 286 285 284 283 280 279 279 277 272 265 261 260 261 262 261 263 264 265 266 267 269 269 267 262 257 251 245 237 234 233 230 225
306 303 301 298 293 290 290 290 288 289 289 286 286 287 283 278 281 282 279 272 267 263 260 258 259 259 261 263 264 264 263 266 266 265 260 257 252 247 240 234 232 231 228
303 302 302 299 295 294 294 291 289 291 291 289 289 290 289 285 287 287 285 281 276 272 267 264 262 259 260 262 263 262 262 264 264 260 255 256 251 248 244 235 231 231 229
302 304 304 299 296 294 293 295 297 296 295 294 293 292 293 291 292 290 288 286 283 278 273 270 268 265 262 261 261 262 263 263 260 258 255 253 254 251 247 238 232 230 231
303 305 303 298 295 297 296 296 299 298 298 301 302 299 297 296 294 294 293 291 288 281 279 276 272 270 268 265 263 262 263 264 262 258 255 254 254 254 249 243 235 231 231
302 304 301 298 298 297 297 297 300 299 301 303 303 302 300 299 296 295 295 293 292 288 283 280 278 277 275 272 268 264 262 262 262 258 256 254 253 254 252 247 240 234 232
298 298 298 297 295 297 298 297 300 301 303 304 305 303 301 300 298 296 295 294 293 291 287 283 280 280 278 275 270 268 267 263 261 259 258 256 254 255 253 249 242 236 233
293 293 294 294 296 300 302 301 302 303 306 307 308 307 303 302 299 297 296 294 290 289 287 284 282 280 279 276 270 269 268 266 264 261 259 256 255 255 254 252 245 240 236
287 289 293 296 300 302 303 304 306 307 309 311 311 310 307 306 303 301 299 296 292 290 287 285 283 280 279 277 273 270 269 266 263 262 261 258 255 254 252 251 249 245 240
280 285 292 298 301 305 307 309 311 312 313 315 316 315 313 311 309 307 305 301 297 294 290 286 284 282 280 277 274 272 269 267 264 263 262 260 256 254 251 250 248 247 244
272 280 291 300 304 309 311 313 316 318 320 321 321 321 318 316 314 312 310 308 305 301 296 291 287 284 282 280 276 274 271 268 266 264 263 261 257 254 252 250 249 247 245
268 282 295 303 310 315 318 322 325 329 331 332 331 329 325 321 318 316 313 312 309 307 303 298 293 289 285 282 280 277 274 272 269 266 263 261 259 257 254 251 249 247 246
268 290 304 313 320 326 330 332 335 337 337 336 333 330 326 322 319 316 314 312 311 309 306 303 299 294 289 285 282 279 278 276 272 268 265 262 260 258 256 254 251 249 248
287 307 318 324 330 334 337 338 337 336 334 332 331 329 326 323 320 316 314 312 310 308 306 303 301 297 293 289 285 282 280 277 275 272 268 264 262 260 257 254 252 250 249
337 335 331 334 337 339 340 340 338 337 335 332 329 327 325 323 320 317 314 312 310 308 307 305 302 299 296 293 289 285 282 279 277 274 272 268 264 260 258 256 254 251 249
342 338 337 338 340 341 341 340 338 336 335 332 330 329 327 325 321 316 314 312 311 309 307 305 303 300 297 294 291 288 285 282 279 276 273 270 267 263 260 257 255 253 250